This is the latest recevied weather packets stored in our database for station/object N8DMH-13. If no packets are shown the sender has not sent any weather packets the latest 1 day(s).
| Time | Temp. | Humidity | Pressure | Rain* | Wind** | Luminosity | Snow |
|---|---|---|---|---|---|---|---|
| 1778063935 | 1.67° C | 86% | 1011.8 hPa | 0 mm | - | - | - |
| 1778063034 | 1.11° C | 87% | 1011.6 hPa | 0 mm | - | - | - |
| 1778062074 | 1.11° C | 86% | 1011.6 hPa | 0 mm | - | - | - |
| 1778061774 | 1.11° C | 86% | 1011.8 hPa | 0 mm | - | - | - |
| 1778061474 | 1.11° C | 85% | 1011.7 hPa | 0 mm | - | - | - |
| 1778061144 | 1.11° C | 85% | 1011.5 hPa | 0 mm | - | - | - |
| 1778060514 | 1.11° C | 84% | 1011.5 hPa | 0 mm | - | - | - |
| 1778059883 | 1.67° C | 83% | 1011.5 hPa | 0 mm | - | - | - |
| 1778058653 | 2.22° C | 82% | 1011.5 hPa | 0 mm | - | - | - |
| 1778058353 | 2.22° C | 83% | 1011.5 hPa | 0 mm | - | - | - |
| 1778058023 | 2.22° C | 82% | 1011.3 hPa | 0 mm | - | - | - |
| 1778056102 | 2.78° C | 80% | 1011.5 hPa | 0 mm | - | - | - |
| 1778055802 | 2.78° C | 79% | 1011.4 hPa | 0 mm | - | - | - |
| 1778055472 | 2.78° C | 79% | 1011.3 hPa | 0 mm | - | - | - |
| 1778054842 | 2.78° C | 79% | 1011.2 hPa | 0 mm | - | - | - |
| 1778054211 | 3.33° C | 79% | 1011.2 hPa | 0 mm | - | - | - |
| 1778052351 | 3.33° C | 76% | 1011.3 hPa | 0 mm | - | - | - |
| 1778052051 | 3.33° C | 77% | 1011.3 hPa | 0 mm | - | - | - |
| 1778051721 | 3.33° C | 77% | 1011.1 hPa | 0 mm | - | - | - |
| 1778051391 | 3.33° C | 76% | 1011.1 hPa | 0 mm | - | - | - |
| 1778051091 | 3.33° C | 76% | 1011.2 hPa | 0 mm | - | - | - |
| 1778050160 | 3.89° C | 76% | 1011.3 hPa | 0 mm | - | - | - |
| 1778049200 | 3.89° C | 76% | 1011.3 hPa | 0 mm | - | - | - |
| 1778048900 | 3.89° C | 75% | 1011.3 hPa | 0 mm | - | - | - |
| 1778048600 | 3.89° C | 75% | 1011.3 hPa | 0 mm | - | - | - |
* Rain latest hour (hover to see other rain measurements)
** Current wind speed in m/s (hover to see current wind gust speed)